owner,sensor,date,latitude,longitude,vertical_datum,sea_water_temperature,qcFlag 
TABS,ioos:station:wmo:42045:1,1999-03-01T00:00:00Z,26.2168,-96.4998,-2.0,20.66,11111222 
TABS,ioos:station:wmo:42045:1,1999-03-01T00:30:00Z,26.2168,-96.4998,-2.0,20.67,11111222 
TABS,ioos:station:wmo:42045:1,1999-03-01T01:00:00Z,26.2168,-96.4998,-2.0,20.66,11111222 
TABS,ioos:station:wmo:42045:1,1999-03-01T01:30:00Z,26.2168,-96.4998,-2.0,20.47,11111222 
TABS,ioos:station:wmo:42045:1,1999-03-01T02:00:00Z,26.2168,-96.4998,-2.0,20.49,11111222 
TABS,ioos:station:wmo:42045:1,1999-03-01T02:30:00Z,26.2168,-96.4998,-2.0,20.64,11111222 
TABS,ioos:station:wmo:42045:1,1999-03-01T03:00:00Z,26.2168,-96.4998,-2.0,20.69,11111222 
TABS,ioos:station:wmo:42045:1,1999-03-01T03:30:00Z,26.2168,-96.4998,-2.0,20.65,11111222 
TABS,ioos:station:wmo:42045:1,1999-03-01T04:00:00Z,26.2168,-96.4998,-2.0,20.65,11111222 
TABS,ioos:station:wmo:42045:1,1999-03-01T04:30:00Z,26.2168,-96.4998,-2.0,20.64,11111222 
TABS,ioos:station:wmo:42045:1,1999-03-01T05:00:00Z,26.2168,-96.4998,-2.0,20.64,11111222 
TABS,ioos:station:wmo:42045:1,1999-03-01T05:30:00Z,26.2168,-96.4998,-2.0,20.65,11111222 
TABS,ioos:station:wmo:42045:1,1999-03-01T06:00:00Z,26.2168,-96.4998,-2.0,20.67,11111222 
TABS,ioos:station:wmo:42045:1,1999-03-01T06:30:00Z,26.2168,-96.4998,-2.0,20.66,11111222 
TABS,ioos:station:wmo:42045:1,1999-03-01T07:00:00Z,26.2168,-96.4998,-2.0,20.65,11111222 
TABS,ioos:station:wmo:42045:1,1999-03-01T07:30:00Z,26.2168,-96.4998,-2.0,20.66,11111222 
TABS,ioos:station:wmo:42045:1,1999-03-01T08:00:00Z,26.2168,-96.4998,-2.0,20.68,11111222 
TABS,ioos:station:wmo:42045:1,1999-03-01T08:30:00Z,26.2168,-96.4998,-2.0,20.69,11111222 
TABS,ioos:station:wmo:42045:1,1999-03-01T09:00:00Z,26.2168,-96.4998,-2.0,20.71,11111222 
TABS,ioos:station:wmo:42045:1,1999-03-01T09:30:00Z,26.2168,-96.4998,-2.0,20.34,11111222 
TABS,ioos:station:wmo:42045:1,1999-03-01T10:00:00Z,26.2168,-96.4998,-2.0,20.3,11111222 
TABS,ioos:station:wmo:42045:1,1999-03-01T10:30:00Z,26.2168,-96.4998,-2.0,20.28,11111222 
TABS,ioos:station:wmo:42045:1,1999-03-01T11:00:00Z,26.2168,-96.4998,-2.0,20.27,11111222 
TABS,ioos:station:wmo:42045:1,1999-03-01T11:30:00Z,26.2168,-96.4998,-2.0,20.18,11111222 
TABS,ioos:station:wmo:42045:1,1999-03-01T12:00:00Z,26.2168,-96.4998,-2.0,20.04,11111222 
TABS,ioos:station:wmo:42045:1,1999-03-01T12:30:00Z,26.2168,-96.4998,-2.0,19.9,11111222 
TABS,ioos:station:wmo:42045:1,1999-03-01T13:00:00Z,26.2168,-96.4998,-2.0,19.82,11111222 
TABS,ioos:station:wmo:42045:1,1999-03-01T13:30:00Z,26.2168,-96.4998,-2.0,19.72,11111222 
TABS,ioos:station:wmo:42045:1,1999-03-01T14:00:00Z,26.2168,-96.4998,-2.0,19.63,11111222 
TABS,ioos:station:wmo:42045:1,1999-03-01T14:30:00Z,26.2168,-96.4998,-2.0,19.65,11111222 
TABS,ioos:station:wmo:42045:1,1999-03-01T15:00:00Z,26.2168,-96.4998,-2.0,19.72,11111222 
TABS,ioos:station:wmo:42045:1,1999-03-01T15:30:00Z,26.2168,-96.4998,-2.0,19.74,11111222 
TABS,ioos:station:wmo:42045:1,1999-03-01T16:00:00Z,26.2168,-96.4998,-2.0,19.76,11111222 
TABS,ioos:station:wmo:42045:1,1999-03-01T16:30:00Z,26.2168,-96.4998,-2.0,19.76,11111222 
TABS,ioos:station:wmo:42045:1,1999-03-01T17:00:00Z,26.2168,-96.4998,-2.0,19.77,11111222 
TABS,ioos:station:wmo:42045:1,1999-03-01T17:30:00Z,26.2168,-96.4998,-2.0,19.85,11111222 
TABS,ioos:station:wmo:42045:1,1999-03-01T18:00:00Z,26.2168,-96.4998,-2.0,19.88,11111222 
TABS,ioos:station:wmo:42045:1,1999-03-01T18:30:00Z,26.2168,-96.4998,-2.0,19.89,11111222 
TABS,ioos:station:wmo:42045:1,1999-03-01T19:00:00Z,26.2168,-96.4998,-2.0,19.94,11111222 
TABS,ioos:station:wmo:42045:1,1999-03-01T19:30:00Z,26.2168,-96.4998,-2.0,19.94,11111222 
TABS,ioos:station:wmo:42045:1,1999-03-01T20:00:00Z,26.2168,-96.4998,-2.0,20.03,11111222 
TABS,ioos:station:wmo:42045:1,1999-03-01T20:30:00Z,26.2168,-96.4998,-2.0,20.06,11111222 
TABS,ioos:station:wmo:42045:1,1999-03-01T21:00:00Z,26.2168,-96.4998,-2.0,20.09,11111222 
TABS,ioos:station:wmo:42045:1,1999-03-01T21:30:00Z,26.2168,-96.4998,-2.0,20.1,11111222 
TABS,ioos:station:wmo:42045:1,1999-03-01T22:00:00Z,26.2168,-96.4998,-2.0,20.12,11111222 
TABS,ioos:station:wmo:42045:1,1999-03-01T22:30:00Z,26.2168,-96.4998,-2.0,20.12,11111222 
TABS,ioos:station:wmo:42045:1,1999-03-01T23:00:00Z,26.2168,-96.4998,-2.0,20.12,11111222 
TABS,ioos:station:wmo:42045:1,1999-03-01T23:30:00Z,26.2168,-96.4998,-2.0,20.09,11111222 
TABS,ioos:station:wmo:42045:1,1999-03-02T00:00:00Z,26.2168,-96.4998,-2.0,20.14,11111222 
TABS,ioos:station:wmo:42045:1,1999-03-02T00:30:00Z,26.2168,-96.4998,-2.0,20.18,11111222 
TABS,ioos:station:wmo:42045:1,1999-03-02T01:00:00Z,26.2168,-96.4998,-2.0,20.64,11111222 
TABS,ioos:station:wmo:42045:1,1999-03-02T01:30:00Z,26.2168,-96.4998,-2.0,21.01,11111222 
TABS,ioos:station:wmo:42045:1,1999-03-02T02:00:00Z,26.2168,-96.4998,-2.0,20.97,11111222 
TABS,ioos:station:wmo:42045:1,1999-03-02T02:30:00Z,26.2168,-96.4998,-2.0,20.88,11111222 
TABS,ioos:station:wmo:42045:1,1999-03-02T03:00:00Z,26.2168,-96.4998,-2.0,20.88,11111222 
TABS,ioos:station:wmo:42045:1,1999-03-02T03:30:00Z,26.2168,-96.4998,-2.0,20.92,11111222 
TABS,ioos:station:wmo:42045:1,1999-03-02T04:00:00Z,26.2168,-96.4998,-2.0,20.95,11111222 
TABS,ioos:station:wmo:42045:1,1999-03-02T04:30:00Z,26.2168,-96.4998,-2.0,21.03,11111222 
TABS,ioos:station:wmo:42045:1,1999-03-02T06:00:00Z,26.2168,-96.4998,-2.0,21.16,11111222 
TABS,ioos:station:wmo:42045:1,1999-03-02T06:30:00Z,26.2168,-96.4998,-2.0,21.16,11111222 
TABS,ioos:station:wmo:42045:1,1999-03-02T07:00:00Z,26.2168,-96.4998,-2.0,21.26,11111222 
TABS,ioos:station:wmo:42045:1,1999-03-02T07:30:00Z,26.2168,-96.4998,-2.0,21.3,11111222 
TABS,ioos:station:wmo:42045:1,1999-03-02T08:00:00Z,26.2168,-96.4998,-2.0,21.31,11111222 
TABS,ioos:station:wmo:42045:1,1999-03-02T08:30:00Z,26.2168,-96.4998,-2.0,21.28,11111222 
TABS,ioos:station:wmo:42045:1,1999-03-02T09:00:00Z,26.2168,-96.4998,-2.0,21.27,11111222 
TABS,ioos:station:wmo:42045:1,1999-03-02T09:30:00Z,26.2168,-96.4998,-2.0,21.3,11111222 
TABS,ioos:station:wmo:42045:1,1999-03-02T10:00:00Z,26.2168,-96.4998,-2.0,21.28,11111222 
TABS,ioos:station:wmo:42045:1,1999-03-02T10:30:00Z,26.2168,-96.4998,-2.0,21.27,11111222 
TABS,ioos:station:wmo:42045:1,1999-03-02T11:00:00Z,26.2168,-96.4998,-2.0,21.33,11111222 
TABS,ioos:station:wmo:42045:1,1999-03-02T11:30:00Z,26.2168,-96.4998,-2.0,21.36,11111222 
TABS,ioos:station:wmo:42045:1,1999-03-02T12:00:00Z,26.2168,-96.4998,-2.0,21.43,11111222 
TABS,ioos:station:wmo:42045:1,1999-03-02T12:30:00Z,26.2168,-96.4998,-2.0,21.49,11111222 
TABS,ioos:station:wmo:42045:1,1999-03-02T13:00:00Z,26.2168,-96.4998,-2.0,21.31,11111222 
TABS,ioos:station:wmo:42045:1,1999-03-02T13:30:00Z,26.2168,-96.4998,-2.0,21.18,11111222 
TABS,ioos:station:wmo:42045:1,1999-03-02T14:00:00Z,26.2168,-96.4998,-2.0,21.14,11111222 
TABS,ioos:station:wmo:42045:1,1999-03-02T14:30:00Z,26.2168,-96.4998,-2.0,21.12,11111222 
TABS,ioos:station:wmo:42045:1,1999-03-02T15:00:00Z,26.2168,-96.4998,-2.0,21.14,11111222 
TABS,ioos:station:wmo:42045:1,1999-03-02T15:30:00Z,26.2168,-96.4998,-2.0,21.1,11111222 
TABS,ioos:station:wmo:42045:1,1999-03-02T16:00:00Z,26.2168,-96.4998,-2.0,21.02,11111222 
TABS,ioos:station:wmo:42045:1,1999-03-02T16:30:00Z,26.2168,-96.4998,-2.0,21.04,11111222 
TABS,ioos:station:wmo:42045:1,1999-03-02T17:00:00Z,26.2168,-96.4998,-2.0,21.08,11111222 
TABS,ioos:station:wmo:42045:1,1999-03-02T17:30:00Z,26.2168,-96.4998,-2.0,21.12,11111222 
TABS,ioos:station:wmo:42045:1,1999-03-02T18:00:00Z,26.2168,-96.4998,-2.0,21.15,11111222 
TABS,ioos:station:wmo:42045:1,1999-03-02T18:30:00Z,26.2168,-96.4998,-2.0,21.11,11111222 
TABS,ioos:station:wmo:42045:1,1999-03-02T19:00:00Z,26.2168,-96.4998,-2.0,21.05,11111222 
TABS,ioos:station:wmo:42045:1,1999-03-02T19:30:00Z,26.2168,-96.4998,-2.0,20.97,11111222 
TABS,ioos:station:wmo:42045:1,1999-03-02T20:00:00Z,26.2168,-96.4998,-2.0,20.97,11111222 
TABS,ioos:station:wmo:42045:1,1999-03-02T20:30:00Z,26.2168,-96.4998,-2.0,20.97,11111222 
TABS,ioos:station:wmo:42045:1,1999-03-02T21:00:00Z,26.2168,-96.4998,-2.0,20.98,11111222 
TABS,ioos:station:wmo:42045:1,1999-03-02T21:30:00Z,26.2168,-96.4998,-2.0,20.98,11111222 
TABS,ioos:station:wmo:42045:1,1999-03-02T22:00:00Z,26.2168,-96.4998,-2.0,21.0,11111222 
TABS,ioos:station:wmo:42045:1,1999-03-02T22:30:00Z,26.2168,-96.4998,-2.0,21.01,11111222 
TABS,ioos:station:wmo:42045:1,1999-03-02T23:00:00Z,26.2168,-96.4998,-2.0,20.98,11111222 
TABS,ioos:station:wmo:42045:1,1999-03-02T23:30:00Z,26.2168,-96.4998,-2.0,20.95,11111222 
TABS,ioos:station:wmo:42045:1,1999-03-03T11:00:00Z,26.2168,-96.4998,-2.0,21.32,11111222 
TABS,ioos:station:wmo:42045:1,1999-03-03T12:00:00Z,26.2168,-96.4998,-2.0,21.31,11111222 
TABS,ioos:station:wmo:42045:1,1999-03-03T12:30:00Z,26.2168,-96.4998,-2.0,21.36,11111222 
TABS,ioos:station:wmo:42045:1,1999-03-03T13:00:00Z,26.2168,-96.4998,-2.0,21.36,11111222 
TABS,ioos:station:wmo:42045:1,1999-03-03T13:30:00Z,26.2168,-96.4998,-2.0,21.39,11111222 
TABS,ioos:station:wmo:42045:1,1999-03-03T14:00:00Z,26.2168,-96.4998,-2.0,21.36,11111222 
TABS,ioos:station:wmo:42045:1,1999-03-03T14:30:00Z,26.2168,-96.4998,-2.0,21.38,11111222 
TABS,ioos:station:wmo:42045:1,1999-03-03T15:00:00Z,26.2168,-96.4998,-2.0,21.38,11111222 
TABS,ioos:station:wmo:42045:1,1999-03-03T15:30:00Z,26.2168,-96.4998,-2.0,21.39,11111222 
TABS,ioos:station:wmo:42045:1,1999-03-03T16:00:00Z,26.2168,-96.4998,-2.0,21.39,11111222 
TABS,ioos:station:wmo:42045:1,1999-03-03T16:30:00Z,26.2168,-96.4998,-2.0,21.34,11111222 
TABS,ioos:station:wmo:42045:1,1999-03-03T17:00:00Z,26.2168,-96.4998,-2.0,21.33,11111222 
TABS,ioos:station:wmo:42045:1,1999-03-03T17:30:00Z,26.2168,-96.4998,-2.0,21.33,11111222 
TABS,ioos:station:wmo:42045:1,1999-03-03T18:00:00Z,26.2168,-96.4998,-2.0,21.33,11111222 
TABS,ioos:station:wmo:42045:1,1999-03-03T18:30:00Z,26.2168,-96.4998,-2.0,21.22,11111222 
TABS,ioos:station:wmo:42045:1,1999-03-03T19:00:00Z,26.2168,-96.4998,-2.0,21.21,11111222 
TABS,ioos:station:wmo:42045:1,1999-03-03T19:30:00Z,26.2168,-96.4998,-2.0,21.18,11111222 
TABS,ioos:station:wmo:42045:1,1999-03-03T20:00:00Z,26.2168,-96.4998,-2.0,21.18,11111222 
TABS,ioos:station:wmo:42045:1,1999-03-03T20:30:00Z,26.2168,-96.4998,-2.0,21.21,11111222 
TABS,ioos:station:wmo:42045:1,1999-03-03T21:00:00Z,26.2168,-96.4998,-2.0,21.14,11111222 
TABS,ioos:station:wmo:42045:1,1999-03-03T21:30:00Z,26.2168,-96.4998,-2.0,21.14,11111222 
TABS,ioos:station:wmo:42045:1,1999-03-03T22:00:00Z,26.2168,-96.4998,-2.0,21.17,11111222 
TABS,ioos:station:wmo:42045:1,1999-03-03T22:30:00Z,26.2168,-96.4998,-2.0,21.16,11111222 
TABS,ioos:station:wmo:42045:1,1999-03-03T23:00:00Z,26.2168,-96.4998,-2.0,21.1,11111222 
TABS,ioos:station:wmo:42045:1,1999-03-03T23:30:00Z,26.2168,-96.4998,-2.0,21.09,11111222 
TABS,ioos:station:wmo:42045:1,1999-03-04T00:00:00Z,26.2168,-96.4998,-2.0,21.12,11111222 
TABS,ioos:station:wmo:42045:1,1999-03-04T00:30:00Z,26.2168,-96.4998,-2.0,21.15,11111222 
TABS,ioos:station:wmo:42045:1,1999-03-04T01:00:00Z,26.2168,-96.4998,-2.0,21.16,11111222 
TABS,ioos:station:wmo:42045:1,1999-03-04T01:30:00Z,26.2168,-96.4998,-2.0,21.21,11111222 
TABS,ioos:station:wmo:42045:1,1999-03-04T02:00:00Z,26.2168,-96.4998,-2.0,21.2,11111222 
TABS,ioos:station:wmo:42045:1,1999-03-04T02:30:00Z,26.2168,-96.4998,-2.0,21.27,11111222 
TABS,ioos:station:wmo:42045:1,1999-03-04T03:00:00Z,26.2168,-96.4998,-2.0,21.28,11111222 
TABS,ioos:station:wmo:42045:1,1999-03-04T03:30:00Z,26.2168,-96.4998,-2.0,21.29,11111222 
TABS,ioos:station:wmo:42045:1,1999-03-04T04:00:00Z,26.2168,-96.4998,-2.0,21.32,11111222 
TABS,ioos:station:wmo:42045:1,1999-03-04T04:30:00Z,26.2168,-96.4998,-2.0,21.33,11111222 
TABS,ioos:station:wmo:42045:1,1999-03-04T05:00:00Z,26.2168,-96.4998,-2.0,21.33,11111222 
TABS,ioos:station:wmo:42045:1,1999-03-04T05:30:00Z,26.2168,-96.4998,-2.0,21.33,11111222 
TABS,ioos:station:wmo:42045:1,1999-03-04T06:00:00Z,26.2168,-96.4998,-2.0,21.32,11111222 
TABS,ioos:station:wmo:42045:1,1999-03-04T06:30:00Z,26.2168,-96.4998,-2.0,21.32,11111222 
TABS,ioos:station:wmo:42045:1,1999-03-04T07:00:00Z,26.2168,-96.4998,-2.0,21.31,11111222 
TABS,ioos:station:wmo:42045:1,1999-03-04T07:30:00Z,26.2168,-96.4998,-2.0,21.31,11111222 
TABS,ioos:station:wmo:42045:1,1999-03-04T08:00:00Z,26.2168,-96.4998,-2.0,21.29,11111222 
TABS,ioos:station:wmo:42045:1,1999-03-04T08:30:00Z,26.2168,-96.4998,-2.0,21.31,11111222 
TABS,ioos:station:wmo:42045:1,1999-03-04T09:00:00Z,26.2168,-96.4998,-2.0,21.3,11111222 
TABS,ioos:station:wmo:42045:1,1999-03-04T09:30:00Z,26.2168,-96.4998,-2.0,21.29,11111222 
TABS,ioos:station:wmo:42045:1,1999-03-04T10:00:00Z,26.2168,-96.4998,-2.0,21.29,11111222 
TABS,ioos:station:wmo:42045:1,1999-03-04T10:30:00Z,26.2168,-96.4998,-2.0,21.28,11111222 
TABS,ioos:station:wmo:42045:1,1999-03-04T11:00:00Z,26.2168,-96.4998,-2.0,21.31,11111222 
TABS,ioos:station:wmo:42045:1,1999-03-04T11:30:00Z,26.2168,-96.4998,-2.0,21.29,11111222 
TABS,ioos:station:wmo:42045:1,1999-03-04T12:00:00Z,26.2168,-96.4998,-2.0,21.28,11111222 
TABS,ioos:station:wmo:42045:1,1999-03-04T12:30:00Z,26.2168,-96.4998,-2.0,21.29,11111222 
TABS,ioos:station:wmo:42045:1,1999-03-04T13:00:00Z,26.2168,-96.4998,-2.0,21.31,11111222 
TABS,ioos:station:wmo:42045:1,1999-03-04T13:30:00Z,26.2168,-96.4998,-2.0,21.31,11111222 
TABS,ioos:station:wmo:42045:1,1999-03-04T14:00:00Z,26.2168,-96.4998,-2.0,21.32,11111222 
TABS,ioos:station:wmo:42045:1,1999-03-04T14:30:00Z,26.2168,-96.4998,-2.0,21.33,11111222 
TABS,ioos:station:wmo:42045:1,1999-03-04T15:00:00Z,26.2168,-96.4998,-2.0,21.35,11111222 
TABS,ioos:station:wmo:42045:1,1999-03-04T15:30:00Z,26.2168,-96.4998,-2.0,21.36,11111222 
TABS,ioos:station:wmo:42045:1,1999-03-04T16:00:00Z,26.2168,-96.4998,-2.0,21.43,11111222 
TABS,ioos:station:wmo:42045:1,1999-03-04T16:30:00Z,26.2168,-96.4998,-2.0,21.5,11111222 
TABS,ioos:station:wmo:42045:1,1999-03-04T17:00:00Z,26.2168,-96.4998,-2.0,21.6,11111222 
TABS,ioos:station:wmo:42045:1,1999-03-04T17:30:00Z,26.2168,-96.4998,-2.0,21.78,11111222 
TABS,ioos:station:wmo:42045:1,1999-03-04T18:00:00Z,26.2168,-96.4998,-2.0,21.88,11111222 
TABS,ioos:station:wmo:42045:1,1999-03-04T18:30:00Z,26.2168,-96.4998,-2.0,21.9,11111222 
TABS,ioos:station:wmo:42045:1,1999-03-04T19:00:00Z,26.2168,-96.4998,-2.0,21.93,11111222 
TABS,ioos:station:wmo:42045:1,1999-03-04T19:30:00Z,26.2168,-96.4998,-2.0,21.94,11111222 
TABS,ioos:station:wmo:42045:1,1999-03-04T20:00:00Z,26.2168,-96.4998,-2.0,21.97,11111222 
TABS,ioos:station:wmo:42045:1,1999-03-04T20:30:00Z,26.2168,-96.4998,-2.0,21.96,11111222 
TABS,ioos:station:wmo:42045:1,1999-03-04T21:00:00Z,26.2168,-96.4998,-2.0,21.98,11111222 
TABS,ioos:station:wmo:42045:1,1999-03-04T21:30:00Z,26.2168,-96.4998,-2.0,21.97,11111222 
TABS,ioos:station:wmo:42045:1,1999-03-04T22:00:00Z,26.2168,-96.4998,-2.0,21.96,11111222 
TABS,ioos:station:wmo:42045:1,1999-03-04T22:30:00Z,26.2168,-96.4998,-2.0,21.96,11111222 
TABS,ioos:station:wmo:42045:1,1999-03-04T23:00:00Z,26.2168,-96.4998,-2.0,21.96,11111222 
TABS,ioos:station:wmo:42045:1,1999-03-04T23:30:00Z,26.2168,-96.4998,-2.0,21.95,11111222 
TABS,ioos:station:wmo:42045:1,1999-03-05T00:00:00Z,26.2168,-96.4998,-2.0,21.96,11111222 
TABS,ioos:station:wmo:42045:1,1999-03-05T00:30:00Z,26.2168,-96.4998,-2.0,21.96,11111222 
TABS,ioos:station:wmo:42045:1,1999-03-05T01:00:00Z,26.2168,-96.4998,-2.0,21.96,11111222 
TABS,ioos:station:wmo:42045:1,1999-03-05T01:30:00Z,26.2168,-96.4998,-2.0,21.96,11111222 
TABS,ioos:station:wmo:42045:1,1999-03-05T02:00:00Z,26.2168,-96.4998,-2.0,21.96,11111222 
TABS,ioos:station:wmo:42045:1,1999-03-05T02:30:00Z,26.2168,-96.4998,-2.0,21.96,11111222 
TABS,ioos:station:wmo:42045:1,1999-03-05T03:00:00Z,26.2168,-96.4998,-2.0,21.96,11111222 
TABS,ioos:station:wmo:42045:1,1999-03-05T03:30:00Z,26.2168,-96.4998,-2.0,21.95,11111222 
TABS,ioos:station:wmo:42045:1,1999-03-05T04:00:00Z,26.2168,-96.4998,-2.0,21.95,11111222 
TABS,ioos:station:wmo:42045:1,1999-03-05T04:30:00Z,26.2168,-96.4998,-2.0,21.95,11111222 
TABS,ioos:station:wmo:42045:1,1999-03-05T06:00:00Z,26.2168,-96.4998,-2.0,21.55,11111222 
TABS,ioos:station:wmo:42045:1,1999-03-05T06:30:00Z,26.2168,-96.4998,-2.0,21.49,11111222 
TABS,ioos:station:wmo:42045:1,1999-03-05T07:00:00Z,26.2168,-96.4998,-2.0,21.45,11111222 
TABS,ioos:station:wmo:42045:1,1999-03-05T07:30:00Z,26.2168,-96.4998,-2.0,21.39,11111222 
TABS,ioos:station:wmo:42045:1,1999-03-05T08:00:00Z,26.2168,-96.4998,-2.0,21.36,11111222 
TABS,ioos:station:wmo:42045:1,1999-03-05T08:30:00Z,26.2168,-96.4998,-2.0,21.33,11111222 
TABS,ioos:station:wmo:42045:1,1999-03-05T09:00:00Z,26.2168,-96.4998,-2.0,21.31,11111222 
TABS,ioos:station:wmo:42045:1,1999-03-05T09:30:00Z,26.2168,-96.4998,-2.0,21.25,11111222 
TABS,ioos:station:wmo:42045:1,1999-03-05T10:00:00Z,26.2168,-96.4998,-2.0,21.17,11111222 
TABS,ioos:station:wmo:42045:1,1999-03-05T10:30:00Z,26.2168,-96.4998,-2.0,21.13,11111222 
TABS,ioos:station:wmo:42045:1,1999-03-05T11:00:00Z,26.2168,-96.4998,-2.0,21.08,11111222 
TABS,ioos:station:wmo:42045:1,1999-03-05T11:30:00Z,26.2168,-96.4998,-2.0,21.04,11111222 
TABS,ioos:station:wmo:42045:1,1999-03-05T12:00:00Z,26.2168,-96.4998,-2.0,21.05,11111222 
TABS,ioos:station:wmo:42045:1,1999-03-05T12:30:00Z,26.2168,-96.4998,-2.0,20.97,11111222 
TABS,ioos:station:wmo:42045:1,1999-03-05T13:00:00Z,26.2168,-96.4998,-2.0,20.96,11111222 
TABS,ioos:station:wmo:42045:1,1999-03-05T13:30:00Z,26.2168,-96.4998,-2.0,20.96,11111222 
TABS,ioos:station:wmo:42045:1,1999-03-05T14:00:00Z,26.2168,-96.4998,-2.0,20.93,11111222 
TABS,ioos:station:wmo:42045:1,1999-03-05T14:30:00Z,26.2168,-96.4998,-2.0,20.94,11111222 
TABS,ioos:station:wmo:42045:1,1999-03-05T15:00:00Z,26.2168,-96.4998,-2.0,20.93,11111222 
TABS,ioos:station:wmo:42045:1,1999-03-05T15:30:00Z,26.2168,-96.4998,-2.0,20.92,11111222 
TABS,ioos:station:wmo:42045:1,1999-03-05T16:00:00Z,26.2168,-96.4998,-2.0,20.93,11111222 
TABS,ioos:station:wmo:42045:1,1999-03-05T16:30:00Z,26.2168,-96.4998,-2.0,20.93,11111222 
TABS,ioos:station:wmo:42045:1,1999-03-05T17:00:00Z,26.2168,-96.4998,-2.0,20.93,11111222 
TABS,ioos:station:wmo:42045:1,1999-03-05T17:30:00Z,26.2168,-96.4998,-2.0,20.93,11111222 
TABS,ioos:station:wmo:42045:1,1999-03-05T18:00:00Z,26.2168,-96.4998,-2.0,20.93,11111222 
TABS,ioos:station:wmo:42045:1,1999-03-05T18:30:00Z,26.2168,-96.4998,-2.0,20.94,11111222 
TABS,ioos:station:wmo:42045:1,1999-03-05T19:00:00Z,26.2168,-96.4998,-2.0,20.94,11111222 
TABS,ioos:station:wmo:42045:1,1999-03-05T19:30:00Z,26.2168,-96.4998,-2.0,20.95,11111222 
TABS,ioos:station:wmo:42045:1,1999-03-05T20:00:00Z,26.2168,-96.4998,-2.0,20.98,11111222 
TABS,ioos:station:wmo:42045:1,1999-03-07T11:00:00Z,26.2168,-96.4998,-2.0,20.95,11111222 
TABS,ioos:station:wmo:42045:1,1999-03-07T11:30:00Z,26.2168,-96.4998,-2.0,20.95,11111222 
TABS,ioos:station:wmo:42045:1,1999-03-07T12:00:00Z,26.2168,-96.4998,-2.0,20.93,11111222 
TABS,ioos:station:wmo:42045:1,1999-03-07T12:30:00Z,26.2168,-96.4998,-2.0,20.91,11111222 
TABS,ioos:station:wmo:42045:1,1999-03-07T13:00:00Z,26.2168,-96.4998,-2.0,20.9,11111222 
TABS,ioos:station:wmo:42045:1,1999-03-07T13:30:00Z,26.2168,-96.4998,-2.0,20.89,11111222 
TABS,ioos:station:wmo:42045:1,1999-03-07T14:00:00Z,26.2168,-96.4998,-2.0,20.89,11111222 
TABS,ioos:station:wmo:42045:1,1999-03-07T14:30:00Z,26.2168,-96.4998,-2.0,20.89,11111222 
TABS,ioos:station:wmo:42045:1,1999-03-07T15:00:00Z,26.2168,-96.4998,-2.0,20.91,11111222 
TABS,ioos:station:wmo:42045:1,1999-03-07T15:30:00Z,26.2168,-96.4998,-2.0,20.93,11111222 
TABS,ioos:station:wmo:42045:1,1999-03-07T16:00:00Z,26.2168,-96.4998,-2.0,20.97,11111222 
TABS,ioos:station:wmo:42045:1,1999-03-07T16:30:00Z,26.2168,-96.4998,-2.0,20.99,11111222 
TABS,ioos:station:wmo:42045:1,1999-03-07T17:00:00Z,26.2168,-96.4998,-2.0,21.03,11111222 
TABS,ioos:station:wmo:42045:1,1999-03-07T17:30:00Z,26.2168,-96.4998,-2.0,21.06,11111222 
TABS,ioos:station:wmo:42045:1,1999-03-07T18:00:00Z,26.2168,-96.4998,-2.0,21.06,11111222 
TABS,ioos:station:wmo:42045:1,1999-03-07T18:30:00Z,26.2168,-96.4998,-2.0,21.03,11111222 
TABS,ioos:station:wmo:42045:1,1999-03-07T19:00:00Z,26.2168,-96.4998,-2.0,21.06,11111222 
TABS,ioos:station:wmo:42045:1,1999-03-07T19:30:00Z,26.2168,-96.4998,-2.0,21.06,11111222 
TABS,ioos:station:wmo:42045:1,1999-03-07T20:00:00Z,26.2168,-96.4998,-2.0,21.08,11111222 
TABS,ioos:station:wmo:42045:1,1999-03-07T20:30:00Z,26.2168,-96.4998,-2.0,21.06,11111222 
TABS,ioos:station:wmo:42045:1,1999-03-07T21:00:00Z,26.2168,-96.4998,-2.0,21.04,11111222 
TABS,ioos:station:wmo:42045:1,1999-03-07T21:30:00Z,26.2168,-96.4998,-2.0,21.03,11111222 
TABS,ioos:station:wmo:42045:1,1999-03-07T22:00:00Z,26.2168,-96.4998,-2.0,21.02,11111222 
TABS,ioos:station:wmo:42045:1,1999-03-07T22:30:00Z,26.2168,-96.4998,-2.0,21.04,11111222 
TABS,ioos:station:wmo:42045:1,1999-03-07T23:00:00Z,26.2168,-96.4998,-2.0,21.02,11111222 
TABS,ioos:station:wmo:42045:1,1999-03-07T23:30:00Z,26.2168,-96.4998,-2.0,21.03,11111222 
TABS,ioos:station:wmo:42045:1,1999-03-08T00:00:00Z,26.2168,-96.4998,-2.0,21.02,11111222 
TABS,ioos:station:wmo:42045:1,1999-03-08T00:30:00Z,26.2168,-96.4998,-2.0,21.0,11111222 
TABS,ioos:station:wmo:42045:1,1999-03-08T01:00:00Z,26.2168,-96.4998,-2.0,20.97,11111222 
TABS,ioos:station:wmo:42045:1,1999-03-08T01:30:00Z,26.2168,-96.4998,-2.0,20.99,11111222 
TABS,ioos:station:wmo:42045:1,1999-03-08T02:00:00Z,26.2168,-96.4998,-2.0,21.0,11111222 
TABS,ioos:station:wmo:42045:1,1999-03-08T02:30:00Z,26.2168,-96.4998,-2.0,20.98,11111222 
TABS,ioos:station:wmo:42045:1,1999-03-08T03:00:00Z,26.2168,-96.4998,-2.0,21.02,11111222 
TABS,ioos:station:wmo:42045:1,1999-03-08T03:30:00Z,26.2168,-96.4998,-2.0,20.97,11111222 
TABS,ioos:station:wmo:42045:1,1999-03-08T04:00:00Z,26.2168,-96.4998,-2.0,20.94,11111222 
TABS,ioos:station:wmo:42045:1,1999-03-08T04:30:00Z,26.2168,-96.4998,-2.0,20.91,11111222 
TABS,ioos:station:wmo:42045:1,1999-03-08T05:00:00Z,26.2168,-96.4998,-2.0,20.9,11111222 
TABS,ioos:station:wmo:42045:1,1999-03-08T05:30:00Z,26.2168,-96.4998,-2.0,20.88,11111222 
TABS,ioos:station:wmo:42045:1,1999-03-08T06:00:00Z,26.2168,-96.4998,-2.0,20.89,11111222 
TABS,ioos:station:wmo:42045:1,1999-03-08T06:30:00Z,26.2168,-96.4998,-2.0,20.85,11111222 
TABS,ioos:station:wmo:42045:1,1999-03-08T07:00:00Z,26.2168,-96.4998,-2.0,20.81,11111222 
TABS,ioos:station:wmo:42045:1,1999-03-08T07:30:00Z,26.2168,-96.4998,-2.0,20.83,11111222 
TABS,ioos:station:wmo:42045:1,1999-03-08T08:00:00Z,26.2168,-96.4998,-2.0,20.81,11111222 
TABS,ioos:station:wmo:42045:1,1999-03-08T08:30:00Z,26.2168,-96.4998,-2.0,20.8,11111222 
TABS,ioos:station:wmo:42045:1,1999-03-08T09:00:00Z,26.2168,-96.4998,-2.0,20.79,11111222 
TABS,ioos:station:wmo:42045:1,1999-03-08T09:30:00Z,26.2168,-96.4998,-2.0,20.76,11111222 
TABS,ioos:station:wmo:42045:1,1999-03-08T10:00:00Z,26.2168,-96.4998,-2.0,20.72,11111222 
TABS,ioos:station:wmo:42045:1,1999-03-08T10:30:00Z,26.2168,-96.4998,-2.0,20.68,11111222 
TABS,ioos:station:wmo:42045:1,1999-03-08T11:00:00Z,26.2168,-96.4998,-2.0,20.66,11111222 
TABS,ioos:station:wmo:42045:1,1999-03-08T11:30:00Z,26.2168,-96.4998,-2.0,20.64,11111222 
TABS,ioos:station:wmo:42045:1,1999-03-08T12:00:00Z,26.2168,-96.4998,-2.0,20.6,11111222 
TABS,ioos:station:wmo:42045:1,1999-03-08T12:30:00Z,26.2168,-96.4998,-2.0,20.57,11111222 
TABS,ioos:station:wmo:42045:1,1999-03-08T13:00:00Z,26.2168,-96.4998,-2.0,20.53,11111222 
TABS,ioos:station:wmo:42045:1,1999-03-08T13:30:00Z,26.2168,-96.4998,-2.0,20.49,11111222 
TABS,ioos:station:wmo:42045:1,1999-03-08T14:00:00Z,26.2168,-96.4998,-2.0,20.44,11111222 
TABS,ioos:station:wmo:42045:1,1999-03-08T14:30:00Z,26.2168,-96.4998,-2.0,20.38,11111222 
TABS,ioos:station:wmo:42045:1,1999-03-08T15:00:00Z,26.2168,-96.4998,-2.0,20.46,11111222 
TABS,ioos:station:wmo:42045:1,1999-03-08T15:30:00Z,26.2168,-96.4998,-2.0,20.48,11111222 
TABS,ioos:station:wmo:42045:1,1999-03-08T16:00:00Z,26.2168,-96.4998,-2.0,20.51,11111222 
TABS,ioos:station:wmo:42045:1,1999-03-08T16:30:00Z,26.2168,-96.4998,-2.0,20.55,11111222 
TABS,ioos:station:wmo:42045:1,1999-03-08T17:00:00Z,26.2168,-96.4998,-2.0,20.48,11111222 
TABS,ioos:station:wmo:42045:1,1999-03-08T17:30:00Z,26.2168,-96.4998,-2.0,20.45,11111222 